Regional Weather Roundup
Issued by NWS

Home | Current Version | Previous Version | Graphics & Text | Print | Product List | Glossary On
Versions: 1 2 3 4 5 6 7 8 9 10 11 12 13 14 15 16 17 18 19 20 21 22 23 24 25 26 27 28 29 30 31 32 33 34 35 36 37 38 39 40 41 42 43 44 45 46 47 48 49 50
659
ASUS44 KJAN 180603
RWRMS

MISSISSIPPI HOURLY WEATHER ROUNDUP
NATIONAL WEATHER SERVICE JACKSON MS
1200 AM CST THU DEC 18 2014

NOTE: "FAIR: INDICATES FEW OR NO CLOUDS BELOW 12,000 FEET WITH NO
SIGNIFICANT WEATHER AND/OR OBSTRUCTIONS TO VISIBILITY.

MSZ001>002-007>008-010>013-018>021-025>028-034>036-180700-
NORTHWEST MISSISSIPPI

CITY           SKY/WX    TMP DP  RH WIND       PRES   REMARKS
CLARKSDALE     CLOUDY    41  36  81 N9        30.26F
CLEVELAND      CLOUDY    42  38  86 N8        30.25S
GREENWOOD      CLOUDY    43  38  82 N7        30.24R
6HR MIN TEMP:  40; 6HR MAX TEMP:  45;

GREENVILLE     CLOUDY    43  37  79 N9        30.24F
6HR MIN TEMP:  43; 6HR MAX TEMP:  45;

GRENADA        CLOUDY    41  36  81 CALM      30.26R
OLIVE BRANCH   CLOUDY    37  34  87 N9        30.27F WCI  31
OXFORD         CLOUDY    37  32  81 N6        30.28S WCI  33
TUNICA         CLOUDY    39  34  81 N9        30.26F WCI  33
$$

MSZ003>006-009-014>017-022>024-029>033-037>039-180700-
NORTHEAST MISSISSIPPI

CITY           SKY/WX    TMP DP  RH WIND       PRES   REMARKS
COLUMBUS AFB   CLOUDY    38  35  89 CALM      30.21F
6HR MIN TEMP:  38; 6HR MAX TEMP:  44; 6HR PCP: TRACE;

CORINTH        CLOUDY    41  32  70 N6        30.25R
GOLDN TRIANGLE CLOUDY    39  34  81 CALM      30.21R
STARKVILLE     FAIR      39  36  87 NW3       30.22R
TUPELO         CLOUDY    41  33  73 N3        30.24R
6HR MIN TEMP:  39; 6HR MAX TEMP:  44;

$$

MSZ040-058-180700-
CENTRAL MISSISSIPPI

CITY           SKY/WX    TMP DP  RH WIND       PRES   REMARKS
JACKSON INTL   PTCLDY    42  38  85 CALM      30.21R
6HR MIN TEMP:  41; 6HR MAX TEMP:  50;

JACKSON HAWKNS PTCLDY    44  38  79 CALM      30.21R
6HR MIN TEMP:  44; 6HR MAX TEMP:  51;

MERIDIAN KEY   PTCLDY    41  37  86 CALM      30.21S
6HR MIN TEMP:  39; 6HR MAX TEMP:  47;

MERIDIAN NAS   PTCLDY    39  36  89 CALM      30.22R
6HR MIN TEMP:  39; 6HR MAX TEMP:  50;

RAYMOND        FAIR      39  36  87 MISG      30.20S
VICKSBURG      CLOUDY    44  39  82 N7        30.21R
6HR MIN TEMP:  42; 6HR MAX TEMP:  50;

$$

MSZ059>079-180700-
SOUTH MISSISSIPPI

CITY           SKY/WX    TMP DP  RH WIND       PRES   REMARKS
HATTIESBURG    PTCLDY    41  39  93 CALM      30.21R
6HR MIN TEMP:  41; 6HR MAX TEMP:  47;

MCCOMB         CLEAR     43  39  86 CALM      30.18F
6HR MIN TEMP:  42; 6HR MAX TEMP:  51;

NATCHEZ        MOCLDY    45  39  81 CALM      30.19F
6HR MIN TEMP:  45; 6HR MAX TEMP:  50;

PINE BELT      CLEAR     41  37  87 CALM      30.21R
6HR MIN TEMP:  39; 6HR MAX TEMP:  45;

$$

MSZ080>082-180700-
COASTAL MISSISSIPPI

CITY           SKY/WX    TMP DP  RH WIND       PRES   REMARKS
BILOXI         CLOUDY    50  44  80 E6        30.17F
6HR MIN TEMP:  49; 6HR MAX TEMP:  51;

PASCAGOULA     CLOUDY    41  40  96 CALM      30.19F
6HR MIN TEMP:  38; 6HR MAX TEMP:  44;

GULFPORT       CLOUDY    47  43  86 SE3       30.17F
6HR MIN TEMP:  45; 6HR MAX TEMP:  48;

$$



USA.gov is the U.S. government's official web portal to all federal, state and local government web resources and services.